KFKNKBCB

Guest
Details From KFKN - FRANKLIN MUNI JOHN BEVERLY ROSE
To KBCB - Virginia Tech Montgomery Executive
Flight Number -
Tags generated
Created
Modified
Stats Distance 171 nm / 317 km
Max Altitude 18,000 ft / 5,486 m
Waypoints 3
Social Downloads 0
Likes 0
Share VATSIM

Download

Looking for another format? Having issues loading an existing format? Contact us
Advertisement - Login to hide

Notes

Basic altitude profile: - Ascent Rate: 2500ft/min - Ascent Speed: 250kts - Cruise Altitude: 19000ft - Cruise Speed: 420kts - Descent Rate: 1500ft/min - Descent Speed: 250kts

Route

KFKN LELLI KBCB

ID Type Via Altitude Latitude Longitude Leg Dist Tot Dist Heading (true) Name
O KFKN APT - 0 ft / 0 m 36.69785˚ -76.90398˚ - 0 nm - FRANKLIN MUNI JOHN BEVERLY ROSE
LELLI FIX - 18,000 ft / 5,486 m 36.98826˚ -78.38323˚ 73 nm 73 nm 284° / 283° -
O KBCB APT - 0 ft / 0 m 37.20764˚ -80.40780˚ 97 nm 171 nm 278° / 277° Virginia Tech Montgomery Executive

Altitude Profile

Advertisement - Login to hide

Weather


0- 5 10 15 20 25 30 35+ Temperature / ° C

Clouds and Precipitation
Forecast for 2018-05-27 00:00 UTC. Updated 4 hours ago

Ground ~20,000 ft ~40,000 ft Winds

KFKN

Details ICAO KFKN
Name FRANKLIN MUNI JOHN BEVERLY ROSE
Region United States
Timezone America/New_York (UTC-4.0)
Stats Elevation 41 ft / 12 m (AMSL)
Location 36.697850° -76.903979°
Runways 2
Magnetic Variation 10.478° W

METAR

KFKN 270335Z AUTO 19005KT 10SM SCT060 24/23 A2995 RMK AO2 LTG DSNT N T02370230

Decode

TAF

Not found

Departure Runways

ID Width Length Bearing (true) Bearing (mag) Surface Threshold Offset Overrun Length
09 100 ft / 30 m 4,967 ft / 1,514 m 80.95° 91.43° Asphalt 0 ft / 0 m 0 ft / 0 m
14 100 ft / 30 m 4,099 ft / 1,249 m 138.25° 148.73° Concrete 0 ft / 0 m 0 ft / 0 m
27 100 ft / 30 m 4,967 ft / 1,514 m 260.96° 271.44° Asphalt 0 ft / 0 m 0 ft / 0 m
32 100 ft / 30 m 4,099 ft / 1,249 m 318.26° 328.74° Concrete 0 ft / 0 m 0 ft / 0 m

KBCB

Details ICAO KBCB
Name Virginia Tech Montgomery Executive
Region United States
Timezone America/New_York (UTC-4.0)
Stats Elevation 2,132 ft / 650 m (AMSL)
Location 37.207636° -80.407799°
Runways 1
Magnetic Variation 8.408° W

METAR

KBCB 270315Z AUTO 00000KT 7SM BKN120 19/19 A3003 RMK AO2 LTG DSNT SE T01870187

Decode

TAF

KBCB 262331Z 2700/2724 VRB03KT P6SM SCT010 BKN100 FM270600 00000KT 4SM BR OVC020 TEMPO 2709/2712 2SM BR OVC007 FM271300 VRB03KT P6SM BKN060

Decode

Destination Runways

ID Width Length Bearing (true) Bearing (mag) Surface Threshold Offset Overrun Length
12 98 ft / 30 m 4,543 ft / 1,385 m 117.28° 125.69° Asphalt 161 ft / 49 m 0 ft / 0 m
30 98 ft / 30 m 4,543 ft / 1,385 m 297.29° 305.70° Asphalt 187 ft / 57 m 141 ft / 43 m